Weather Roundup
Issued by NWS Chicago, IL

Home | Current Version | Previous Version | Graphics & Text | Print | Product List | Glossary On
Versions: 1 2 3 4 5 6 7 8 9 10 11 12 13 14 15 16 17 18 19 20 21 22 23 24 25 26 27 28 29 30 31 32 33 34 35 36 37 38 39 40 41 42 43 44 45 46 47 48 49 50
000
NZUS59 KLOT 190558
HRRLOT

CHICAGO AREA WEATHER ROUNDUP
NATIONAL WEATHER SERVICE CHICAGO/ROMEOVILLE IL
100 AM CDT FRI SEP 19 2014

NOTE: "FAIR" INDICATES FEW OR NO CLOUDS BELOW 12,000 FEET WITH NO
SIGNIFICANT WEATHER AND/OR OBSTRUCTIONS TO VISIBILITY.

* THESE STATIONS ARE NOT UNDER NWS QUALITY CONTROL. THEY ALSO MAY NOT
  REPORT WEATHER SUCH AS PRECIPITATION OR FOG.

ILZ005-006-012>014-019>023-190700-
NORTHEAST ILLINOIS

CITY           SKY/WX    TMP DP  RH WIND       PRES   REMARKS
OHARE          PTCLDY    58  52  80 NE5       30.16F
6HR MIN TEMP:  57; 6HR MAX TEMP:  62;

MIDWAY         CLEAR     61  58  90 E5        30.15F
6HR MIN TEMP:  60; 6HR MAX TEMP:  63;

AURORA         CLEAR     54  52  93 NE3       30.16R FOG
6HR MIN TEMP:  52; 6HR MAX TEMP:  63;

WAUKEGAN       CLEAR     54  53  97 E5        30.16S FOG
6HR MIN TEMP:  49; 6HR MAX TEMP:  56;

DUPAGE AIRPORT CLEAR     56  54  93 E5        30.15S FOG
6HR MIN TEMP:  52; 6HR MAX TEMP:  61;

WHEELING       CLEAR     53  50  89 CALM      30.18F
6HR MIN TEMP:  53; 6HR MAX TEMP:  59;

NORTHERLY IS     N/A     62  59  90 E7          N/A
$$

WIZ051-052-058>065-066-070>072-190700-
SOUTHEAST WISCONSIN

CITY           SKY/WX    TMP DP  RH WIND       PRES   REMARKS
MILWAUKEE      PTCLDY    52  49  89 CALM      30.18S
6HR MIN TEMP:  51; 6HR MAX TEMP:  57;

$$

INZ001>003-010>013-019-020-190700-
NORTHWEST INDIANA

CITY           SKY/WX    TMP DP  RH WIND       PRES   REMARKS
GARY*          NOT AVBL
MICHIGAN CITY* NOT AVBL
RENSSELAER*    NOT AVBL
$$

LMZ740>746-190700-
SOUTHERN LAKE MICHIGAN

STATION/POSITION TIME  SKY/WX   TEMP WIND        PRES    VSBY
                                AIR  DIR/SP/G
                 (UTC)          (F)  (DEG/KT/KT) (MB)    (MI)
HARRISON CRIB    0500            61   40/  3/  4   N/A
BURNHAM HARBOR   0500            60   30/  5/  7   N/A
CALUMET HARBOR   0500            62   50/  3/  4 1020.3R
BURNS HARBOR     NOT AVBL
MICHIGAN CITY    0500            58   90/  8/ 11   N/A
$$

ABBREVIATIONS USED IN REMARKS
   TC - TEMPERATURE IN CELSIUS
  WCI - WIND CHILL INDEX
   HX - HEAT INDEX
  VSB - VISIBILITY
$$


USA.gov is the U.S. government's official web portal to all federal, state and local government web resources and services.